Terug naar catalogus

STARLINK-35134

ActiefCommunicatieVLEO
NORAD 65641·PAYLOAD·🇺🇸 United States

Gelanceerd Sep 18, 2025 vanaf Cape Canaveral Space Force Station

Loading…

Volgende Passages (komende 24 uur)

TLE

VersSource: CelesTrak SupGP

Epoch: Sep 14, 2026, 22:40 UTC

1 65641C 25210V   26257.94493056 -.00076959  00000+0 -22736-2 0  2570
2 65641  53.1566 143.5322 0001205  97.5997 133.1504 15.34430832    15

Volg STARLINK-35134 in realtime met AllMySat

Download on the App Store